[[{"header":{"parameterUnit":"m.s-1","parameterCategory":1,"la1":30.2991,"la2":30.254,"lo1":-89.0895,"lo2":-89.0444,"dy":0.0017,"dx":0.0017,"nx":28,"ny":28,"refTime":"2024-05-28T03:00:00:Z","depth":0,"parameterNumber":2,"parameterNumberName":"U-component_of_WINDS"},"data":[0,0,0,0,0,0,0,0,0,0,0,0,0,0,0,0,0,0,0,0,0,0,0,0,0,0,0,0,0,0,0,0,0,0,0,0,0,0,0,0,0,0,0,0,0,0,0,0,0,0,0,0,0,0,0,0,0,0,2.6522,2.6523,0,2.6662,2.6664,2.6665,2.6621,2.6618,2.6615,2.6612,2.6762,2.6768,2.6775,0,0,0,0,0,0,0,0,0,0,0,0,0,2.6222,2.6228,2.6522,2.6523,2.6525,2.6662,2.6664,2.6666,2.6622,2.6618,2.6614,2.6611,2.6759,2.6767,2.6776,0,0,0,0,0,0,0,0,0,0,0,0,0,2.6356,2.623,2.6521,2.652,2.6521,2.6661,2.6664,2.6666,2.6623,2.6618,2.6614,2.6609,2.6757,2.6767,2.6777,2.6929,0,0,2.6808,2.6812,0,0,0,0,0,0,0,0,2.6349,2.6367,2.6518,2.652,2.6522,2.6619,2.6613,2.6754,2.6624,2.6584,2.6612,2.6607,2.6718,2.6731,2.6768,2.6936,2.6942,2.6809,2.6815,2.6819,2.6822,0,0,0,0,0,0,0,2.634,2.6361,2.6577,2.652,2.6523,2.6514,2.6528,2.6639,2.6675,2.6587,2.6584,2.6601,2.6718,2.6758,2.6771,2.6945,2.6808,2.6817,2.6823,2.6827,2.7248,2.7253,0,0,0,0,0,0,2.6328,2.6354,2.6573,2.6581,2.6422,2.6523,2.6539,2.6593,2.6673,2.6681,2.6605,2.6599,2.6743,2.6759,2.6776,2.6962,2.6819,2.6828,2.6834,2.7243,2.7249,2.7254,0,0,0,0,0,0,2.6322,2.6348,2.6567,2.6467,2.6494,2.6533,2.6594,2.6598,2.6637,2.6687,2.6693,2.6638,2.674,2.6762,2.6891,2.6966,2.6833,2.6842,2.7237,2.7245,2.7252,2.7333,0,0,0,0,0,0,2.6314,2.6346,2.6403,2.6468,2.65,2.6679,2.6598,2.6604,2.6654,2.6647,2.672,2.6728,2.6738,2.6877,2.6902,2.6978,2.685,2.723,2.724,2.7249,2.7324,2.7342,2.7358,0,0,0,0,0,2.6303,2.6421,2.6406,2.6433,2.6571,2.6683,2.6701,2.6709,2.666,2.6719,2.6751,2.6725,2.6953,2.689,2.6918,2.6998,2.7226,2.7238,2.7249,2.7316,2.7339,2.7358,0,0,0,0,0,0,2.6365,2.6429,2.6414,2.6556,2.6614,2.6675,2.6749,2.6732,2.6807,2.6798,2.6806,2.6823,2.6957,2.699,2.6919,2.7151,2.7083,2.71,2.7124,2.7146,2.7163,2.7153,2.6859,0,0,0,0,0,2.6395,2.6478,2.6531,2.6651,2.6681,2.671,2.6759,2.676,2.6822,2.6847,2.6888,2.6951,2.7037,2.7093,2.7175,2.7328,2.7345,2.7397,2.7414,2.7428,2.7444,2.753,2.7555,2.7292,2.7292,2.7292,0,0,2.6458,2.6503,2.6556,2.6665,2.671,2.6799,2.6731,2.6828,2.6894,2.6862,2.6987,2.702,2.709,2.7233,2.7298,2.7265,2.752,2.7443,2.7453,2.7462,2.7544,2.7569,2.7591,2.73,2.7298,2.7297,0,0,2.6618,2.666,2.6766,2.6813,2.6882,2.69,2.6926,2.699,2.7011,2.7136,2.7114,2.7194,2.7341,2.7393,2.7439,2.762,2.7601,2.7647,2.7738,2.7822,2.7842,2.7861,2.7928,2.7952,2.7662,2.7662,2.7662,0,2.6689,2.6819,2.6823,2.6922,2.6971,2.6945,2.7054,2.7099,2.7192,2.7228,2.719,2.7375,2.742,2.7576,2.762,2.7657,2.7689,2.7639,2.7838,2.7857,2.7874,2.7939,2.7964,2.7667,2.7667,2.7666,2.7666,0,2.6904,2.6995,2.7072,2.7162,2.722,2.7323,2.7345,2.7404,2.74,2.7424,2.7553,2.7607,2.77,2.7736,2.7734,2.7893,2.7871,2.7835,2.7767,2.7905,2.7965,2.799,2.7675,2.7673,2.7672,2.767,0,0,2.7107,2.7197,2.7226,2.7267,2.7342,2.7414,2.7517,2.7606,2.7658,2.7723,2.7812,2.7937,2.7905,2.7957,2.7961,2.8034,2.8178,2.799,2.7992,2.8025,2.8359,2.8386,2.8415,2.8164,2.8169,2.8173,2.8354,0,2.7276,2.7455,2.7462,2.7627,2.7713,2.7689,2.7779,2.7836,2.7861,2.794,2.7968,2.8058,2.8008,2.8039,2.8111,2.8145,2.8245,2.8132,2.825,2.8254,2.8234,2.8446,2.8475,2.8643,2.8377,2.8381,2.8384,0,2.7496,2.7567,2.774,2.7804,2.784,2.7921,2.8005,2.8079,2.8144,2.8157,2.8216,2.8209,2.8317,2.8244,2.8395,2.8318,2.8367,2.8391,2.8398,2.8411,2.8328,2.8467,2.8697,2.8723,2.8421,2.8418,2.8415,0,2.763,2.7769,2.7891,2.7927,2.8004,2.8061,2.8097,2.8157,2.8211,2.8285,2.832,2.8406,2.8454,2.8522,2.854,2.8484,2.8692,2.8619,2.8708,2.8708,2.8754,2.8751,2.8997,2.8782,2.8782,2.8781,2.8781,0,2.7819,2.7926,2.7952,2.8028,2.8148,2.8156,2.8276,2.8307,2.8361,2.8444,2.8429,2.8508,2.8525,2.8608,2.8623,2.8748,2.8769,2.8785,2.8788,2.8787,2.8786,2.8821,2.881,2.8788,2.8787,2.8785,2.8784,0,2.7989,2.8011,2.8143,2.8205,2.8223,2.8309,2.8363,2.8437,2.846,2.8565,2.8591,2.8628,2.8725,2.8749,2.8865,2.8875,2.9023,2.9014,2.9001,2.9001,2.9089,2.9081,2.9368,2.9407,2.9164,2.9167,2.9169,0,2.8109,2.8191,2.8262,2.8315,2.8353,2.8439,2.8494,2.8505,2.8563,2.8645,2.8709,2.8804,2.888,2.9037,2.9076,2.9166,2.916,2.9254,2.9174,2.9171,2.9164,2.916,2.917,2.927,2.9273,2.9275,2.9277,0,2.832,2.8327,2.8405,2.8489,2.8554,2.862,2.8684,2.8729,2.875,2.8816,2.8914,2.8974,2.9092,2.9187,2.9277,2.9316,2.9302,2.9302,2.9327,2.9329,2.9319,2.9328,2.9045,2.9295,2.9294,2.9292,2.9291,2.929,2.8471,2.8543,2.8604,2.8693,2.8742,2.8802,2.8874,2.8906,2.8987,2.9083,2.9086,2.9193,2.9259,2.9378,2.9422,2.9508,2.948,2.9517,2.9526,2.9536,2.9545,2.9303,2.9525,2.9524,2.9524,2.9523,2.9523,0,2.8683,2.8721,2.8802,2.8891,2.8962,2.8939,2.9008,2.907,2.9164,2.9225,2.93,2.9415,2.9507,2.9554,2.9647,2.9707,2.9703,2.9731,2.9728,2.9738,2.9564,2.9533,2.9733,2.9733,2.9733,2.9733,2.9733,2.9733,2.8802,2.8924,2.8938,2.9085,2.9123,2.9227,2.9269,2.9325,2.9374,2.9502,2.9578,2.9607,2.9664,2.976,2.9846,2.9857,2.9893,2.9926,2.9934,2.9771,2.975,2.9729,2.9701,2.9933,2.9933,3.0102,3.0103,3.0104]},{"header":{"parameterUnit":"m.s-1","parameterCategory":1,"la1":30.2991,"la2":30.254,"lo1":-89.0895,"lo2":-89.0444,"dy":0.0017,"dx":0.0017,"nx":28,"ny":28,"refTime":"2024-05-28T03:00:00:Z","depth":0,"parameterNumber":3,"parameterNumberName":"V-component_of_WINDS"},"data":[0,0,0,0,0,0,0,0,0,0,0,0,0,0,0,0,0,0,0,0,0,0,0,0,0,0,0,0,0,0,0,0,0,0,0,0,0,0,0,0,0,0,0,0,0,0,0,0,0,0,0,0,0,0,0,0,0,0,-0.9343,-0.9343,0,-0.9376,-0.9377,-0.9377,-0.9426,-0.9427,-0.9428,-0.9428,-0.946,-0.946,-0.946,0,0,0,0,0,0,0,0,0,0,0,0,0,-0.9319,-0.932,-0.9343,-0.9343,-0.9344,-0.9376,-0.9377,-0.9377,-0.9426,-0.9427,-0.9428,-0.9429,-0.946,-0.946,-0.946,0,0,0,0,0,0,0,0,0,0,0,0,0,-0.9339,-0.932,-0.9343,-0.9372,-0.9375,-0.9376,-0.9377,-0.9377,-0.9425,-0.9427,-0.9428,-0.9429,-0.946,-0.946,-0.946,-0.9435,0,0,-0.946,-0.946,0,0,0,0,0,0,0,0,-0.9338,-0.934,-0.9367,-0.937,-0.9373,-0.9398,-0.938,-0.9396,-0.9425,-0.9406,-0.9428,-0.943,-0.9438,-0.944,-0.9444,-0.9436,-0.9438,-0.946,-0.946,-0.9461,-0.9461,0,0,0,0,0,0,0,-0.9336,-0.9338,-0.9356,-0.9368,-0.9371,-0.9383,-0.9387,-0.9383,-0.9414,-0.9408,-0.9412,-0.9415,-0.944,-0.9443,-0.9445,-0.9438,-0.946,-0.946,-0.9461,-0.9461,-0.9411,-0.941,0,0,0,0,0,0,-0.9331,-0.9337,-0.9355,-0.9357,-0.9358,-0.9382,-0.9387,-0.9389,-0.9415,-0.942,-0.9414,-0.9417,-0.9443,-0.9445,-0.9446,-0.9418,-0.9461,-0.9461,-0.9461,-0.9413,-0.9411,-0.941,0,0,0,0,0,0,-0.933,-0.9332,-0.9354,-0.9348,-0.9352,-0.9381,-0.9383,-0.9389,-0.9392,-0.9419,-0.9425,-0.9411,-0.9444,-0.9446,-0.9437,-0.9419,-0.9461,-0.9461,-0.9414,-0.9412,-0.941,-0.936,0,0,0,0,0,0,-0.9329,-0.9331,-0.9322,-0.9347,-0.9352,-0.9345,-0.9382,-0.9389,-0.9392,-0.9397,-0.9419,-0.9423,-0.9445,-0.9437,-0.9437,-0.942,-0.9461,-0.9416,-0.9413,-0.9411,-0.9364,-0.9357,-0.9351,0,0,0,0,0,-0.9328,-0.9306,-0.9322,-0.9324,-0.9341,-0.9343,-0.9346,-0.9372,-0.9391,-0.9382,-0.9399,-0.9423,-0.9422,-0.9436,-0.9437,-0.9419,-0.9417,-0.9414,-0.9411,-0.9367,-0.9358,-0.9351,0,0,0,0,0,0,-0.9277,-0.931,-0.9327,-0.9313,-0.9325,-0.9352,-0.9341,-0.9362,-0.9369,-0.9373,-0.9404,-0.9409,-0.9396,-0.9407,-0.9422,-0.9396,-0.9423,-0.942,-0.9389,-0.9381,-0.9375,-0.9372,-0.9461,0,0,0,0,0,-0.9265,-0.9265,-0.9293,-0.9278,-0.9283,-0.9311,-0.9313,-0.9332,-0.9346,-0.9351,-0.9368,-0.9379,-0.9381,-0.9382,-0.9386,-0.9366,-0.9371,-0.9355,-0.9348,-0.9343,-0.9339,-0.9329,-0.9322,-0.94,-0.94,-0.94,0,0,-0.9238,-0.9256,-0.9254,-0.9268,-0.928,-0.9278,-0.9315,-0.9312,-0.931,-0.935,-0.9343,-0.9356,-0.9371,-0.9356,-0.9351,-0.9365,-0.9319,-0.9339,-0.9335,-0.9334,-0.9325,-0.9318,-0.9311,-0.9398,-0.9398,-0.9398,0,0,-0.9189,-0.9203,-0.9191,-0.9202,-0.922,-0.9239,-0.9236,-0.926,-0.927,-0.9264,-0.9293,-0.9292,-0.9296,-0.9305,-0.931,-0.9265,-0.9287,-0.9265,-0.9232,-0.9221,-0.9215,-0.921,-0.9193,-0.9187,-0.9262,-0.9262,-0.9262,0,-0.9153,-0.9152,-0.9182,-0.9178,-0.9183,-0.922,-0.9208,-0.9217,-0.9234,-0.9237,-0.9253,-0.9258,-0.9271,-0.9259,-0.9248,-0.9252,-0.9249,-0.9262,-0.9214,-0.9209,-0.9204,-0.9188,-0.9182,-0.9259,-0.926,-0.926,-0.926,0,-0.9107,-0.9107,-0.9095,-0.9112,-0.9116,-0.9108,-0.9136,-0.9136,-0.9155,-0.9172,-0.9165,-0.9182,-0.919,-0.9189,-0.9207,-0.9179,-0.9187,-0.9208,-0.9236,-0.9194,-0.9179,-0.9173,-0.9255,-0.9256,-0.9257,-0.9258,0,0,-0.9025,-0.906,-0.9055,-0.9063,-0.9085,-0.9085,-0.9078,-0.9087,-0.9086,-0.9097,-0.9092,-0.9094,-0.9114,-0.912,-0.914,-0.9131,-0.9093,-0.9153,-0.9154,-0.914,-0.9063,-0.9046,-0.9038,-0.9108,-0.9107,-0.9107,-0.9061,0,-0.8979,-0.897,-0.8997,-0.8981,-0.898,-0.9016,-0.901,-0.9023,-0.9039,-0.904,-0.9058,-0.9058,-0.9085,-0.9089,-0.9082,-0.9099,-0.9078,-0.9103,-0.9102,-0.9102,-0.9096,-0.9031,-0.9013,-0.8969,-0.9056,-0.9055,-0.9054,0,-0.8924,-0.8933,-0.8917,-0.894,-0.8941,-0.8935,-0.8945,-0.8946,-0.8962,-0.8974,-0.8981,-0.9004,-0.8999,-0.9027,-0.9019,-0.9035,-0.9037,-0.9046,-0.9045,-0.9044,-0.9074,-0.9028,-0.8956,-0.8949,-0.9046,-0.9046,-0.9047,0,-0.8864,-0.8872,-0.8864,-0.887,-0.8897,-0.8892,-0.8904,-0.892,-0.8924,-0.8932,-0.8935,-0.8942,-0.8946,-0.8951,-0.8975,-0.8994,-0.8965,-0.8995,-0.8973,-0.8973,-0.8964,-0.8964,-0.8891,-0.8968,-0.8968,-0.8968,-0.8968,0,-0.8809,-0.8797,-0.8837,-0.8832,-0.882,-0.8851,-0.8838,-0.8853,-0.8868,-0.8865,-0.8897,-0.8893,-0.8927,-0.8927,-0.8947,-0.8937,-0.8939,-0.8948,-0.8953,-0.8944,-0.8943,-0.8944,-0.8947,-0.8966,-0.8967,-0.8967,-0.8967,0,-0.8739,-0.8766,-0.8759,-0.8786,-0.8793,-0.8782,-0.8806,-0.8801,-0.882,-0.8816,-0.8817,-0.8846,-0.8848,-0.8874,-0.8881,-0.8894,-0.8876,-0.8888,-0.8871,-0.8874,-0.8851,-0.8852,-0.8775,-0.8766,-0.8849,-0.8849,-0.8848,0,-0.8702,-0.8694,-0.8721,-0.8722,-0.8732,-0.8733,-0.8737,-0.8768,-0.877,-0.8787,-0.8781,-0.8786,-0.8791,-0.8793,-0.8813,-0.8819,-0.883,-0.8803,-0.8831,-0.8823,-0.8828,-0.8828,-0.8827,-0.8796,-0.8795,-0.8794,-0.8793,0,-0.8632,-0.8645,-0.865,-0.8659,-0.8663,-0.8672,-0.8682,-0.8681,-0.8715,-0.8717,-0.872,-0.8724,-0.8732,-0.8736,-0.8746,-0.8757,-0.878,-0.8785,-0.878,-0.877,-0.876,-0.8764,-0.8853,-0.8786,-0.8787,-0.8787,-0.8788,-0.8788,-0.8576,-0.8571,-0.8589,-0.8593,-0.8604,-0.8614,-0.8611,-0.863,-0.8633,-0.8642,-0.8661,-0.8661,-0.8676,-0.8692,-0.8701,-0.8701,-0.8715,-0.8708,-0.8706,-0.8704,-0.8699,-0.8762,-0.8703,-0.8703,-0.8704,-0.8704,-0.8704,0,-0.8506,-0.852,-0.8524,-0.8538,-0.8541,-0.8565,-0.8578,-0.8579,-0.8579,-0.8592,-0.8597,-0.86,-0.8604,-0.8626,-0.8633,-0.8628,-0.8639,-0.8629,-0.8629,-0.8631,-0.8686,-0.8689,-0.862,-0.862,-0.862,-0.862,-0.862,-0.862,-0.8471,-0.8462,-0.8478,-0.8476,-0.849,-0.8491,-0.8496,-0.8505,-0.8515,-0.8518,-0.8522,-0.8537,-0.8553,-0.8561,-0.8566,-0.8572,-0.8572,-0.8558,-0.8568,-0.8619,-0.8627,-0.8635,-0.8637,-0.8558,-0.8558,-0.8512,-0.8511,-0.8511]}]]